KB9HGI-1 Weather Reports


Display with metric or nautical units.
time (UTC)temp
F
wind
direction
speed
MPH
gust
MPH
rain 1hr
in
rain 24hr
in
rain mn
in
humidity
%
barometer
mb
20260504174431 78 207 6.0 13.0 0.00 0.05 0.05 51 999.3
20260504173431 77 218 6.0 13.0 0.00 0.05 0.05 52 999.3
20260504172430 77 231 11.0 19.0 0.00 0.05 0.05 50 999.3
20260504171430 77 224 5.0 14.0 0.00 0.05 0.05 52 999.7
20260504170429 77 226 6.0 10.0 0.00 0.05 0.05 52 999.7
20260504160322 74 233 9.0 16.0 0.00 0.05 0.05 54 1000.3
20260504150318 72 235 6.0 14.0 0.00 0.05 0.05 60 1000.7
20260504141213 68 234 5.0 9.0 0.00 0.05 0.05 67 1001.0
20260504140213 67 234 5.0 10.0 0.00 0.05 0.05 69 1001.0
20260504130208 64 223 4.0 6.0 0.00 0.05 0.05 75 1001.4
20260504120204 64 331 0.0 5.0 0.00 0.05 0.05 70 1001.4
20260504081843 57 197 0.0 0.0 0.01 0.05 0.05 89 1003.4
20260504080843 57 197 0.0 0.0 0.02 0.05 0.05 89 1003.7
20260504050556 60 265 2.0 3.0 0.00 0.00 0.00 74 1004.7
20260504045555 60 275 0.0 0.0 0.00 0.00 0.00 74 1005.1
20260504044554 60 275 0.0 0.0 0.00 0.00 0.00 74 1005.1
20260504043554 60 275 0.0 0.0 0.00 0.00 0.00 74 1005.1
20260504042554 60 275 0.0 0.0 0.00 0.00 0.00 73 1005.1
20260504041552 60 275 0.0 1.0 0.00 0.00 0.00 73 1005.1
20260504040552 60 275 0.0 0.0 0.00 0.00 0.00 71 1005.4
20260504035551 61 275 0.0 0.0 0.00 0.00 0.00 70 1005.4
20260504034551 61 275 0.0 0.0 0.00 0.00 0.00 69 1005.4
20260504033550 62 275 0.0 0.0 0.00 0.00 0.00 68 1005.4
20260504032518 62 275 0.0 0.0 0.00 0.00 0.00 67 1005.4
20260504031518 63 275 0.0 0.0 0.00 0.00 0.00 66 1005.4
20260504030415 63 275 0.0 0.0 0.00 0.00 0.00 66 1005.4
20260504025414 64 275 0.0 0.0 0.00 0.00 0.00 65 1005.4
20260504024414 64 275 0.0 0.0 0.00 0.00 0.00 64 1005.4
20260504023413 64 275 0.0 0.0 0.00 0.00 0.00 64 1005.4
20260504022412 65 275 0.0 0.0 0.00 0.00 0.00 63 1005.1
20260504021411 65 275 0.0 0.0 0.00 0.00 0.00 62 1005.4
20260504020411 66 275 0.0 0.0 0.00 0.00 0.00 61 1005.4
20260504015410 66 275 0.0 0.0 0.00 0.00 0.00 60 1005.4
20260504014409 67 275 0.0 0.0 0.00 0.00 0.00 60 1005.4
20260504013409 68 275 0.0 0.0 0.00 0.00 0.00 58 1005.4
20260504012408 68 275 0.0 0.0 0.00 0.00 0.00 58 1005.1
20260504011407 69 275 0.0 0.0 0.00 0.00 0.00 57 1005.4
20260504010407 69 275 0.0 0.0 0.00 0.00 0.00 56 1005.4
20260504005406 69 275 0.0 0.0 0.00 0.00 0.00 54 1005.1
20260504004406 70 275 0.0 0.0 0.00 0.00 0.00 54 1005.1
20260504003405 70 275 0.0 2.0 0.00 0.00 0.00 54 1005.4
20260504002405 70 274 4.0 7.0 0.00 0.00 0.00 53 1005.4
20260504001404 70 271 1.0 6.0 0.00 0.00 0.00 53 1005.8
20260504000404 71 274 1.0 1.0 0.00 0.00 0.00 52 1005.4
20260503235403 71 274 0.0 1.0 0.00 0.00 0.00 51 1005.8
20260503234332 71 274 0.0 0.0 0.00 0.00 0.00 51 1005.4
20260503233331 72 274 0.0 3.0 0.00 0.00 0.00 50 1005.8
20260503232330 72 263 0.0 4.0 0.00 0.00 0.00 50 1005.4
20260503231329 72 263 1.0 10.0 0.00 0.00 0.00 50 1005.8
20260503230329 73 284 3.0 9.0 0.00 0.00 0.00 50 1005.8
20260503225328 73 299 4.0 8.0 0.00 0.00 0.00 52 1005.8
20260503224327 73 266 5.0 11.0 0.00 0.00 0.00 51 1005.8
20260503223327 73 277 4.0 11.0 0.00 0.00 0.00 51 1006.1
20260503222326 73 252 5.0 10.0 0.00 0.00 0.00 50 1006.1
20260503221326 73 274 8.0 12.0 0.00 0.00 0.00 50 1006.1
20260503220325 73 270 5.0 8.0 0.00 0.00 0.00 50 1005.8
20260503215324 73 254 5.0 10.0 0.00 0.00 0.00 50 1005.4
20260503214253 73 266 3.0 13.0 0.00 0.00 0.00 50 1005.8
20260503213252 73 266 6.0 12.0 0.00 0.00 0.00 49 1006.1
20260503212251 73 256 6.0 14.0 0.00 0.00 0.00 48 1005.8
20260503211251 74 265 7.0 16.0 0.00 0.00 0.00 47 1006.1
20260503210250 74 259 10.0 23.0 0.00 0.00 0.00 46 1006.4
20260503205249 74 262 9.0 16.0 0.00 0.00 0.00 48 1006.4
20260503204249 73 262 5.0 15.0 0.00 0.00 0.00 48 1006.4
20260503203248 73 258 11.0 19.0 0.00 0.00 0.00 47 1006.8
20260503202248 73 251 11.0 18.0 0.00 0.00 0.00 47 1006.8
20260503201247 73 257 8.0 16.0 0.00 0.00 0.00 48 1006.4
20260503200215 73 262 9.0 21.0 0.00 0.00 0.00 47 1006.8
20260503195215 73 265 9.0 22.0 0.00 0.00 0.00 46 1007.1
20260503194214 74 262 8.0 18.0 0.00 0.00 0.00 47 1007.1
20260503193213 73 250 10.0 18.0 0.00 0.00 0.00 47 1007.5
20260503192213 73 251 10.0 20.0 0.00 0.00 0.00 47 1007.1
20260503191212 72 233 8.0 13.0 0.00 0.00 0.00 48 1007.5
20260503190212 71 249 6.0 20.0 0.00 0.00 0.00 48 1007.5
20260503185211 71 255 8.0 19.0 0.00 0.00 0.00 49 1007.8
20260503184210 70 239 8.0 18.0 0.00 0.00 0.00 49 1007.8
20260503183209 69 228 7.0 19.0 0.00 0.00 0.00 50 1008.1
20260503182138 68 247 7.0 20.0 0.00 0.00 0.00 50 1007.8
20260503181137 68 230 8.0 14.0 0.00 0.00 0.00 50 1007.8
20260503180136 67 237 10.0 15.0 0.00 0.00 0.00 50 1008.5
20260503175136 67 235 8.0 20.0 0.00 0.00 0.00 49 1008.8